N825GB KSEZ-KTRM

Flight info

Callsign N825GB
Flight time 1h 19m
Altitude 18000
Route DRK PKE RDBUL1
Aircraft BT36/L-BDFGLORY/S

Departure

Time 2026-05-05 19:50
Airport Sedona Airport (KSEZ)

Arrival

Time 2026-05-05 21:09
Airport Jacqueline Cochran Regional Airport (KTRM)
Time Latitude Longitude Altitude Speed Heading
2026-05-05 19:37 34.84905 -111.79238 4783 ft 0 kts 137°
2026-05-05 19:45 34.84915 -111.79204 4784 ft 8 kts 49°
2026-05-05 19:45 34.84945 -111.79148 4786 ft 7 kts 121°
2026-05-05 19:45 34.84886 -111.79086 4785 ft 16 kts 143°
2026-05-05 19:46 34.84833 -111.79012 4777 ft 6 kts 91°
2026-05-05 19:46 34.84867 -111.78955 4781 ft 10 kts 45°
2026-05-05 19:46 34.84931 -111.78876 4785 ft 16 kts 46°
2026-05-05 19:46 34.85021 -111.78762 4793 ft 20 kts 47°
2026-05-05 19:47 34.85122 -111.78639 4807 ft 21 kts 52°
2026-05-05 19:47 34.85227 -111.78505 4822 ft 22 kts 47°
2026-05-05 19:47 34.85328 -111.78378 4830 ft 17 kts 44°
2026-05-05 19:47 34.85369 -111.78313 4833 ft 8 kts 73°
2026-05-05 19:48 34.85371 -111.78297 4830 ft 0 kts 88°
2026-05-05 19:48 34.85371 -111.78293 4830 ft 2 kts 95°
2026-05-05 19:48 34.85350 -111.78253 4835 ft 5 kts 139°
2026-05-05 19:49 34.85328 -111.78262 4831 ft 0 kts 220°
2026-05-05 19:49 34.85247 -111.78360 4825 ft 51 kts 226°
2026-05-05 19:49 34.84863 -111.78848 4866 ft 96 kts 227°
2026-05-05 19:49 34.84394 -111.79458 5257 ft 98 kts 220°
2026-05-05 19:50 34.83868 -111.80066 5738 ft 111 kts 219°
2026-05-05 19:50 34.83421 -111.80891 6034 ft 134 kts 253°
2026-05-05 19:50 34.83326 -111.82048 6301 ft 141 kts 257°
2026-05-05 19:50 34.83247 -111.83258 6578 ft 147 kts 257°
2026-05-05 19:51 34.83179 -111.84530 6828 ft 153 kts 258°
2026-05-05 19:51 34.83115 -111.85836 7066 ft 155 kts 257°
2026-05-05 19:51 34.82982 -111.87142 7304 ft 155 kts 254°
2026-05-05 19:51 34.82787 -111.88436 7538 ft 156 kts 253°
2026-05-05 19:52 34.82556 -111.89729 7774 ft 157 kts 252°
2026-05-05 19:52 34.82309 -111.91006 8011 ft 158 kts 252°
2026-05-05 19:52 34.82050 -111.92305 8254 ft 157 kts 251°
2026-05-05 19:52 34.81780 -111.93597 8493 ft 158 kts 251°
2026-05-05 19:53 34.81506 -111.94898 8745 ft 159 kts 251°
2026-05-05 19:53 34.81234 -111.96198 8984 ft 159 kts 252°
2026-05-05 19:53 34.80961 -111.97505 9229 ft 159 kts 251°
2026-05-05 19:53 34.80690 -111.98807 9490 ft 159 kts 252°
2026-05-05 19:54 34.80417 -112.00098 9748 ft 160 kts 252°
2026-05-05 19:54 34.80142 -112.01405 9990 ft 159 kts 253°
2026-05-05 19:54 34.79870 -112.02705 10223 ft 157 kts 252°
2026-05-05 19:54 34.79607 -112.03968 10451 ft 151 kts 252°
2026-05-05 19:55 34.79352 -112.05186 10673 ft 146 kts 252°
2026-05-05 19:55 34.79102 -112.06369 10896 ft 143 kts 253°
2026-05-05 19:55 34.78861 -112.07528 11108 ft 140 kts 252°
2026-05-05 19:55 34.78610 -112.08687 11354 ft 143 kts 252°
2026-05-05 19:56 34.78359 -112.09857 11587 ft 143 kts 252°
2026-05-05 19:56 34.78112 -112.11037 11819 ft 144 kts 252°
2026-05-05 19:56 34.77864 -112.12219 12061 ft 144 kts 251°
2026-05-05 19:56 34.77615 -112.13404 12305 ft 145 kts 251°
2026-05-05 19:57 34.77365 -112.14592 12546 ft 145 kts 252°
2026-05-05 19:57 34.77117 -112.15764 12804 ft 145 kts 253°
2026-05-05 19:57 34.76867 -112.16945 13042 ft 143 kts 253°
2026-05-05 19:57 34.76619 -112.18098 13245 ft 140 kts 252°
2026-05-05 19:58 34.76367 -112.19245 13499 ft 141 kts 252°
2026-05-05 19:58 34.76133 -112.20408 13746 ft 141 kts 252°
2026-05-05 19:58 34.75893 -112.21566 14006 ft 142 kts 252°
2026-05-05 19:58 34.75650 -112.22715 14248 ft 142 kts 252°
2026-05-05 19:59 34.75403 -112.23879 14496 ft 142 kts 252°
2026-05-05 19:59 34.75155 -112.25049 14741 ft 143 kts 252°
2026-05-05 19:59 34.74904 -112.26222 14998 ft 143 kts 252°
2026-05-05 19:59 34.74655 -112.27394 15246 ft 143 kts 252°
2026-05-05 20:00 34.74407 -112.28565 15501 ft 143 kts 252°
2026-05-05 20:00 34.74162 -112.29727 15746 ft 140 kts 252°
2026-05-05 20:00 34.73920 -112.30864 16001 ft 137 kts 252°
2026-05-05 20:00 34.73685 -112.31963 16252 ft 135 kts 252°
2026-05-05 20:01 34.73449 -112.33067 16434 ft 138 kts 252°
2026-05-05 20:01 34.73200 -112.34238 16467 ft 148 kts 253°
2026-05-05 20:01 34.72936 -112.35482 16481 ft 155 kts 253°
2026-05-05 20:01 34.72661 -112.36777 16486 ft 161 kts 253°
2026-05-05 20:02 34.72377 -112.38112 16486 ft 164 kts 253°
2026-05-05 20:02 34.72097 -112.39433 16495 ft 163 kts 253°
2026-05-05 20:02 34.71810 -112.40775 16491 ft 163 kts 253°
2026-05-05 20:02 34.71525 -112.42109 16488 ft 163 kts 253°
2026-05-05 20:03 34.71240 -112.43439 16492 ft 163 kts 253°
2026-05-05 20:03 34.70955 -112.44771 16489 ft 162 kts 253°
2026-05-05 20:03 34.70671 -112.46100 16494 ft 162 kts 252°
2026-05-05 20:03 34.70386 -112.47427 16489 ft 162 kts 252°
2026-05-05 20:04 34.70097 -112.48755 16489 ft 163 kts 252°
2026-05-05 20:04 34.69768 -112.50068 16324 ft 165 kts 250°
2026-05-05 20:04 34.69413 -112.51399 16329 ft 166 kts 250°
2026-05-05 20:04 34.69052 -112.52732 16329 ft 166 kts 250°
2026-05-05 20:05 34.68691 -112.54069 16326 ft 166 kts 250°
2026-05-05 20:05 34.68105 -112.56265 16333 ft 166 kts 250°
2026-05-05 20:05 34.67399 -112.58944 16336 ft 166 kts 250°
2026-05-05 20:05 34.66702 -112.61593 16338 ft 167 kts 250°
2026-05-05 20:06 34.66004 -112.64237 16450 ft 162 kts 250°
2026-05-05 20:06 34.65315 -112.66847 16486 ft 162 kts 250°
2026-05-05 20:06 34.64623 -112.69469 16489 ft 163 kts 250°
2026-05-05 20:06 34.63929 -112.72094 16501 ft 164 kts 250°
2026-05-05 20:07 34.63226 -112.74753 16507 ft 166 kts 250°
2026-05-05 20:07 34.62525 -112.77418 16493 ft 165 kts 250°
2026-05-05 20:07 34.61817 -112.80083 16506 ft 166 kts 249°
2026-05-05 20:07 34.61114 -112.82731 16511 ft 167 kts 249°
2026-05-05 20:08 34.60399 -112.85425 16502 ft 168 kts 249°
2026-05-05 20:08 34.59682 -112.88119 16493 ft 167 kts 249°
2026-05-05 20:08 34.58964 -112.90824 16531 ft 170 kts 249°
2026-05-05 20:08 34.58234 -112.93583 16517 ft 172 kts 250°
2026-05-05 20:09 34.57494 -112.96348 16496 ft 171 kts 249°
2026-05-05 20:09 34.56766 -112.99069 16487 ft 168 kts 249°
2026-05-05 20:09 34.56045 -113.01767 16499 ft 168 kts 249°
2026-05-05 20:09 34.55324 -113.04470 16498 ft 168 kts 249°
2026-05-05 20:10 34.54603 -113.07168 16489 ft 168 kts 249°
2026-05-05 20:10 34.53885 -113.09848 16489 ft 166 kts 249°
2026-05-05 20:10 34.53165 -113.12531 16494 ft 168 kts 250°
2026-05-05 20:10 34.52450 -113.15201 16496 ft 169 kts 249°
2026-05-05 20:11 34.51721 -113.17908 16486 ft 169 kts 249°
2026-05-05 20:11 34.50991 -113.20620 16493 ft 170 kts 249°
2026-05-05 20:11 34.50257 -113.23348 16490 ft 169 kts 249°
2026-05-05 20:11 34.49527 -113.26056 16484 ft 169 kts 249°
2026-05-05 20:12 34.48799 -113.28764 16482 ft 169 kts 249°
2026-05-05 20:12 34.48068 -113.31466 16478 ft 168 kts 249°
2026-05-05 20:12 34.47345 -113.34137 16483 ft 169 kts 249°
2026-05-05 20:12 34.46612 -113.36847 16479 ft 169 kts 249°
2026-05-05 20:13 34.45876 -113.39561 16477 ft 169 kts 249°
2026-05-05 20:13 34.45141 -113.42278 16478 ft 169 kts 249°
2026-05-05 20:13 34.44408 -113.44988 16486 ft 170 kts 249°
2026-05-05 20:13 34.43667 -113.47721 16493 ft 170 kts 249°
2026-05-05 20:14 34.42933 -113.50419 16488 ft 166 kts 249°
2026-05-05 20:14 34.42208 -113.53070 16478 ft 165 kts 249°
2026-05-05 20:14 34.41495 -113.55683 16487 ft 165 kts 249°
2026-05-05 20:14 34.40774 -113.58324 16489 ft 165 kts 249°
2026-05-05 20:15 34.40053 -113.60969 16482 ft 164 kts 248°
2026-05-05 20:15 34.39340 -113.63588 16479 ft 164 kts 249°
2026-05-05 20:15 34.38623 -113.66206 16479 ft 164 kts 249°
2026-05-05 20:15 34.37999 -113.68485 16483 ft 164 kts 248°
2026-05-05 20:16 34.37626 -113.69810 16512 ft 168 kts 249°
2026-05-05 20:16 34.37257 -113.71140 16506 ft 169 kts 249°
2026-05-05 20:16 34.36887 -113.72493 16499 ft 169 kts 249°
2026-05-05 20:16 34.36519 -113.73850 16505 ft 170 kts 249°
2026-05-05 20:17 34.36150 -113.75211 16517 ft 171 kts 249°
2026-05-05 20:17 34.35773 -113.76583 16508 ft 171 kts 249°
2026-05-05 20:17 34.35398 -113.77949 16499 ft 171 kts 249°
2026-05-05 20:17 34.35024 -113.79313 16500 ft 170 kts 249°
2026-05-05 20:18 34.34654 -113.80658 16501 ft 170 kts 249°
2026-05-05 20:18 34.34279 -113.82018 16500 ft 170 kts 249°
2026-05-05 20:18 34.33904 -113.83382 16501 ft 171 kts 249°
2026-05-05 20:18 34.33528 -113.84744 16498 ft 171 kts 249°
2026-05-05 20:19 34.33153 -113.86105 16499 ft 170 kts 249°
2026-05-05 20:19 34.32779 -113.87465 16499 ft 170 kts 249°
2026-05-05 20:19 34.32405 -113.88826 16500 ft 170 kts 249°
2026-05-05 20:19 34.32028 -113.90194 16388 ft 174 kts 250°
2026-05-05 20:20 34.31642 -113.91645 15920 ft 189 kts 254°
2026-05-05 20:20 34.31780 -113.93270 15494 ft 203 kts 283°
2026-05-05 20:20 34.32561 -113.94683 15225 ft 209 kts 308°
2026-05-05 20:20 34.33641 -113.95861 14985 ft 208 kts 313°
2026-05-05 20:21 34.34623 -113.97094 14729 ft 196 kts 291°
2026-05-05 20:21 34.34870 -113.98621 14512 ft 185 kts 266°
2026-05-05 20:21 34.34515 -114.00033 14364 ft 173 kts 237°
2026-05-05 20:21 34.33834 -114.01205 14225 ft 167 kts 232°
2026-05-05 20:22 34.33124 -114.02297 14117 ft 164 kts 231°
2026-05-05 20:22 34.32403 -114.03360 14004 ft 162 kts 230°
2026-05-05 20:22 34.31864 -114.04540 13890 ft 162 kts 249°
2026-05-05 20:22 34.31525 -114.05836 13774 ft 161 kts 250°
2026-05-05 20:23 34.31214 -114.07140 13672 ft 160 kts 251°
2026-05-05 20:23 34.30916 -114.08443 13547 ft 161 kts 252°
2026-05-05 20:23 34.30620 -114.09759 13424 ft 164 kts 252°
2026-05-05 20:23 34.30312 -114.11124 13218 ft 172 kts 251°
2026-05-05 20:24 34.29782 -114.12429 12959 ft 174 kts 238°
2026-05-05 20:24 34.29143 -114.13686 12702 ft 177 kts 236°
2026-05-05 20:24 34.28479 -114.14924 12447 ft 178 kts 236°
2026-05-05 20:24 34.27789 -114.16174 12193 ft 179 kts 235°
2026-05-05 20:25 34.27092 -114.17423 11948 ft 179 kts 236°
2026-05-05 20:25 34.26487 -114.18750 11699 ft 181 kts 242°
2026-05-05 20:25 34.25951 -114.20141 11451 ft 184 kts 244°
2026-05-05 20:25 34.25433 -114.21557 11202 ft 184 kts 244°
2026-05-05 20:26 34.24929 -114.22990 10957 ft 185 kts 246°
2026-05-05 20:26 34.24460 -114.24422 10715 ft 185 kts 247°
2026-05-05 20:26 34.23874 -114.25791 10465 ft 183 kts 230°
2026-05-05 20:26 34.23033 -114.26965 10149 ft 187 kts 228°
2026-05-05 20:27 34.22147 -114.28128 9801 ft 189 kts 227°
2026-05-05 20:27 34.21244 -114.29278 9415 ft 188 kts 226°
2026-05-05 20:27 34.20338 -114.30424 9017 ft 188 kts 226°
2026-05-05 20:27 34.19445 -114.31549 8636 ft 187 kts 226°
2026-05-05 20:28 34.18529 -114.32695 8276 ft 186 kts 226°
2026-05-05 20:28 34.17664 -114.33822 8027 ft 181 kts 234°
2026-05-05 20:28 34.17133 -114.35159 7785 ft 178 kts 250°
2026-05-05 20:28 34.16833 -114.36582 7677 ft 170 kts 255°
2026-05-05 20:29 34.16609 -114.37958 7615 ft 167 kts 256°
2026-05-05 20:29 34.16378 -114.39349 7577 ft 170 kts 255°
2026-05-05 20:29 34.16130 -114.40744 7535 ft 170 kts 255°
2026-05-05 20:29 34.15955 -114.41670 7503 ft 171 kts 255°
2026-05-05 20:30 34.15676 -114.43075 7465 ft 172 kts 253°
2026-05-05 20:30 34.15289 -114.44931 7404 ft 172 kts 253°
2026-05-05 20:30 34.15090 -114.45873 7378 ft 171 kts 253°
2026-05-05 20:30 34.14796 -114.47246 7329 ft 171 kts 254°
2026-05-05 20:31 34.14494 -114.48636 7273 ft 171 kts 252°
2026-05-05 20:31 34.14189 -114.50026 7208 ft 171 kts 253°
2026-05-05 20:31 34.13885 -114.51413 7167 ft 170 kts 253°
2026-05-05 20:31 34.13581 -114.52800 7106 ft 171 kts 253°
2026-05-05 20:32 34.13275 -114.54191 7055 ft 171 kts 253°
2026-05-05 20:32 34.12971 -114.55578 7010 ft 171 kts 253°
2026-05-05 20:32 34.12664 -114.56974 6930 ft 173 kts 253°
2026-05-05 20:32 34.12352 -114.58397 6817 ft 176 kts 253°
2026-05-05 20:33 34.12042 -114.59814 6701 ft 176 kts 253°
2026-05-05 20:33 34.11727 -114.61248 6585 ft 178 kts 253°
2026-05-05 20:33 34.11413 -114.62683 6532 ft 174 kts 252°
2026-05-05 20:33 34.11109 -114.64069 6525 ft 169 kts 253°
2026-05-05 20:34 34.10807 -114.65433 6527 ft 167 kts 252°
2026-05-05 20:34 34.10507 -114.66785 6520 ft 166 kts 252°
2026-05-05 20:34 34.10196 -114.68133 6520 ft 165 kts 251°
2026-05-05 20:34 34.09809 -114.69434 6521 ft 165 kts 248°
2026-05-05 20:35 34.09401 -114.70714 6519 ft 165 kts 248°
2026-05-05 20:35 34.08990 -114.72017 6515 ft 167 kts 248°
2026-05-05 20:35 34.08579 -114.73325 6512 ft 167 kts 249°
2026-05-05 20:35 34.08169 -114.74635 6511 ft 166 kts 249°
2026-05-05 20:36 34.07764 -114.75930 6510 ft 161 kts 248°
2026-05-05 20:36 34.07388 -114.77149 6515 ft 150 kts 248°
2026-05-05 20:36 34.07027 -114.78303 6513 ft 146 kts 247°
2026-05-05 20:36 34.06663 -114.79443 6516 ft 145 kts 248°
2026-05-05 20:37 34.06306 -114.80569 6521 ft 143 kts 248°
2026-05-05 20:37 34.05951 -114.81686 6520 ft 143 kts 248°
2026-05-05 20:37 34.05596 -114.82806 6520 ft 143 kts 248°
2026-05-05 20:37 34.05245 -114.83921 6519 ft 142 kts 248°
2026-05-05 20:38 34.04895 -114.85032 6524 ft 141 kts 248°
2026-05-05 20:38 34.04550 -114.86125 6526 ft 141 kts 248°
2026-05-05 20:38 34.04199 -114.87236 6518 ft 141 kts 247°
2026-05-05 20:38 34.03853 -114.88334 6521 ft 140 kts 248°
2026-05-05 20:39 34.03507 -114.89431 6528 ft 139 kts 248°
2026-05-05 20:39 34.03163 -114.90520 6525 ft 139 kts 247°
2026-05-05 20:39 34.02815 -114.91613 6524 ft 140 kts 248°
2026-05-05 20:39 34.02468 -114.92709 6520 ft 140 kts 248°
2026-05-05 20:40 34.02127 -114.93787 6524 ft 139 kts 248°
2026-05-05 20:40 34.01785 -114.94884 6521 ft 140 kts 248°
2026-05-05 20:40 34.01431 -114.95988 6521 ft 142 kts 248°
2026-05-05 20:40 34.01080 -114.97095 6524 ft 141 kts 248°
2026-05-05 20:41 34.00728 -114.98202 6525 ft 141 kts 248°
2026-05-05 20:41 34.00380 -114.99304 6529 ft 141 kts 248°
2026-05-05 20:41 34.00068 -115.00290 6538 ft 143 kts 248°
2026-05-05 20:41 33.99710 -115.01408 6538 ft 142 kts 248°
2026-05-05 20:42 33.99354 -115.02528 6536 ft 144 kts 248°
2026-05-05 20:42 33.98996 -115.03654 6537 ft 144 kts 248°
2026-05-05 20:42 33.98540 -115.04697 6521 ft 144 kts 225°
2026-05-05 20:42 33.97815 -115.05516 6525 ft 143 kts 223°
2026-05-05 20:43 33.97072 -115.06321 6533 ft 144 kts 223°
2026-05-05 20:43 33.96319 -115.07117 6567 ft 145 kts 223°
2026-05-05 20:43 33.95551 -115.07917 6566 ft 147 kts 222°
2026-05-05 20:43 33.94771 -115.08725 6559 ft 148 kts 223°
2026-05-05 20:44 33.93983 -115.09525 6541 ft 147 kts 221°
2026-05-05 20:44 33.93219 -115.10318 6530 ft 147 kts 222°
2026-05-05 20:44 33.92446 -115.11112 6521 ft 145 kts 223°
2026-05-05 20:44 33.91680 -115.11908 6521 ft 145 kts 222°
2026-05-05 20:45 33.90159 -115.13485 6529 ft 144 kts 223°
2026-05-05 20:45 33.89407 -115.14256 6540 ft 143 kts 222°
2026-05-05 20:45 33.88643 -115.15028 6539 ft 143 kts 221°
2026-05-05 20:46 33.87882 -115.15804 6539 ft 144 kts 221°
2026-05-05 20:46 33.87116 -115.16581 6539 ft 144 kts 222°
2026-05-05 20:46 33.86375 -115.17400 6540 ft 145 kts 229°
2026-05-05 20:46 33.85726 -115.18329 6544 ft 145 kts 233°
2026-05-05 20:47 33.85108 -115.19281 6546 ft 145 kts 233°
2026-05-05 20:47 33.84500 -115.20243 6546 ft 144 kts 234°
2026-05-05 20:47 33.83900 -115.21205 6541 ft 143 kts 234°
2026-05-05 20:47 33.83312 -115.22153 6540 ft 143 kts 234°
2026-05-05 20:48 33.82717 -115.23112 6550 ft 143 kts 234°
2026-05-05 20:48 33.82102 -115.24104 6417 ft 152 kts 234°
2026-05-05 20:48 33.81463 -115.25148 6303 ft 157 kts 234°
2026-05-05 20:48 33.80811 -115.26213 6171 ft 159 kts 234°
2026-05-05 20:49 33.80156 -115.27279 6045 ft 160 kts 235°
2026-05-05 20:49 33.79494 -115.28356 5921 ft 160 kts 234°
2026-05-05 20:49 33.78834 -115.29438 5785 ft 161 kts 234°
2026-05-05 20:49 33.78171 -115.30528 5654 ft 161 kts 235°
2026-05-05 20:50 33.77501 -115.31614 5526 ft 162 kts 234°
2026-05-05 20:50 33.76828 -115.32707 5400 ft 163 kts 236°
2026-05-05 20:50 33.76301 -115.33900 5290 ft 161 kts 245°
2026-05-05 20:50 33.75855 -115.35117 5172 ft 160 kts 247°
2026-05-05 20:51 33.75429 -115.36347 5030 ft 158 kts 248°
2026-05-05 20:51 33.75048 -115.37580 4890 ft 156 kts 251°
2026-05-05 20:51 33.74748 -115.38841 4768 ft 158 kts 255°
2026-05-05 20:51 33.74472 -115.40127 4645 ft 158 kts 254°
2026-05-05 20:52 33.74201 -115.41398 4582 ft 155 kts 254°
2026-05-05 20:52 33.73931 -115.42629 4569 ft 153 kts 254°
2026-05-05 20:52 33.73653 -115.43867 4565 ft 153 kts 254°
2026-05-05 20:52 33.73373 -115.45091 4562 ft 150 kts 254°
2026-05-05 20:53 33.73094 -115.46299 4571 ft 149 kts 253°
2026-05-05 20:53 33.72818 -115.47485 4563 ft 146 kts 254°
2026-05-05 20:53 33.72542 -115.48664 4554 ft 146 kts 254°
2026-05-05 20:53 33.72271 -115.49826 4549 ft 142 kts 253°
2026-05-05 20:54 33.72006 -115.50953 4545 ft 141 kts 253°
2026-05-05 20:54 33.71738 -115.52085 4563 ft 141 kts 253°
2026-05-05 20:54 33.71471 -115.53228 4572 ft 142 kts 252°
2026-05-05 20:54 33.71200 -115.54383 4585 ft 146 kts 252°
2026-05-05 20:55 33.70922 -115.55564 4584 ft 147 kts 252°
2026-05-05 20:55 33.70642 -115.56740 4566 ft 146 kts 252°
2026-05-05 20:55 33.70364 -115.57916 4565 ft 146 kts 252°
2026-05-05 20:55 33.70087 -115.59085 4560 ft 147 kts 253°
2026-05-05 20:56 33.69804 -115.60282 4512 ft 151 kts 253°
2026-05-05 20:56 33.69516 -115.61501 4465 ft 151 kts 253°
2026-05-05 20:56 33.69230 -115.62714 4412 ft 150 kts 252°
2026-05-05 20:56 33.68944 -115.63925 4350 ft 152 kts 253°
2026-05-05 20:57 33.68651 -115.65145 4284 ft 152 kts 253°
2026-05-05 20:57 33.68363 -115.66353 4225 ft 152 kts 253°
2026-05-05 20:57 33.68074 -115.67579 4163 ft 152 kts 253°
2026-05-05 20:57 33.67782 -115.68813 4118 ft 154 kts 254°
2026-05-05 20:58 33.67486 -115.70061 4066 ft 156 kts 253°
2026-05-05 20:58 33.67190 -115.71314 4012 ft 156 kts 254°
2026-05-05 20:58 33.66896 -115.72553 3970 ft 157 kts 253°
2026-05-05 20:58 33.66596 -115.73816 3920 ft 158 kts 253°
2026-05-05 20:59 33.66294 -115.75086 3881 ft 159 kts 253°
2026-05-05 20:59 33.65989 -115.76369 3853 ft 160 kts 254°
2026-05-05 20:59 33.65683 -115.77657 3816 ft 160 kts 253°
2026-05-05 20:59 33.65378 -115.78934 3792 ft 162 kts 253°
2026-05-05 21:00 33.65067 -115.80232 3746 ft 161 kts 253°
2026-05-05 21:00 33.64760 -115.81521 3692 ft 159 kts 254°
2026-05-05 21:00 33.64458 -115.82794 3624 ft 158 kts 253°
2026-05-05 21:00 33.64156 -115.84065 3570 ft 158 kts 254°
2026-05-05 21:01 33.63853 -115.85334 3519 ft 158 kts 253°
2026-05-05 21:01 33.63550 -115.86600 3482 ft 158 kts 253°
2026-05-05 21:01 33.63246 -115.87867 3491 ft 158 kts 253°
2026-05-05 21:01 33.62948 -115.89118 3492 ft 157 kts 253°
2026-05-05 21:02 33.62645 -115.90386 3486 ft 157 kts 253°
2026-05-05 21:02 33.62347 -115.91635 3467 ft 154 kts 252°
2026-05-05 21:02 33.62050 -115.92863 3456 ft 153 kts 253°
2026-05-05 21:02 33.61761 -115.94092 3488 ft 153 kts 252°
2026-05-05 21:03 33.61460 -115.95334 3498 ft 156 kts 255°
2026-05-05 21:03 33.61164 -115.96565 3485 ft 155 kts 254°
2026-05-05 21:03 33.60863 -115.97821 3472 ft 155 kts 255°
2026-05-05 21:03 33.60568 -115.99046 3472 ft 154 kts 255°
2026-05-05 21:04 33.60270 -116.00282 3479 ft 154 kts 255°
2026-05-05 21:04 33.59973 -116.01517 3483 ft 154 kts 255°
2026-05-05 21:04 33.59674 -116.02756 3458 ft 154 kts 255°
2026-05-05 21:04 33.59377 -116.04000 3357 ft 158 kts 255°
2026-05-05 21:05 33.59074 -116.05279 3219 ft 160 kts 256°
2026-05-05 21:05 33.58764 -116.06561 3069 ft 160 kts 255°
2026-05-05 21:05 33.58452 -116.07850 2927 ft 160 kts 255°
2026-05-05 21:05 33.58142 -116.09138 2684 ft 161 kts 256°
2026-05-05 21:06 33.57842 -116.10407 2451 ft 158 kts 256°
2026-05-05 21:06 33.57655 -116.11716 2098 ft 163 kts 265°
2026-05-05 21:06 33.57592 -116.13083 1651 ft 162 kts 268°
2026-05-05 21:06 33.57605 -116.14369 1409 ft 148 kts 271°
2026-05-05 21:07 33.57670 -116.15542 1236 ft 137 kts 287°
2026-05-05 21:07 33.58182 -116.16397 1177 ft 119 kts 332°
2026-05-05 21:07 33.58936 -116.16299 946 ft 116 kts 26°
2026-05-05 21:07 33.59630 -116.15857 689 ft 105 kts 21°
2026-05-05 21:08 33.60276 -116.15693 463 ft 88 kts 359°
2026-05-05 21:08 33.60875 -116.15641 292 ft 85 kts 353°
2026-05-05 21:08 33.61416 -116.15628 10 ft 74 kts 344°
2026-05-05 21:08 33.61914 -116.15640 -110 ft 69 kts 345°
2026-05-05 21:09 33.62379 -116.15643 -117 ft 65 kts 355°
2026-05-05 21:09 33.62795 -116.15649 -121 ft 52 kts
2026-05-05 21:09 33.63110 -116.15643 -122 ft 41 kts 359°
2026-05-05 21:09 33.63326 -116.15643 -117 ft 19 kts 359°
2026-05-05 21:10 33.63407 -116.15679 -115 ft 10 kts 288°
2026-05-05 21:10 33.63414 -116.15770 -114 ft 13 kts 270°
2026-05-05 21:10 33.63414 -116.15893 -115 ft 18 kts 271°
2026-05-05 21:10 33.63413 -116.16058 -117 ft 21 kts 270°
2026-05-05 21:11 33.63415 -116.16218 -116 ft 16 kts 274°
2026-05-05 21:11 33.63413 -116.16341 -116 ft 14 kts 272°
2026-05-05 21:11 33.63421 -116.16409 -116 ft 5 kts 337°
2026-05-05 21:11 33.63436 -116.16425 -116 ft 3 kts 255°
2026-05-05 21:12 33.63436 -116.16432 -116 ft 0 kts 269°